Find AISSAT-1

NORAD ID: 36797 Int'l Des: 2010-035 Owner: NSC Country: N operational
LEOCIRCULARRETROGRADE

实时位置

正在加载3D地球...

关于 AISSAT-1

正在加载描述...

即将过境

Passes for default location (London). Set your location on the main map for personalized predictions.

高度历史

Loading altitude history...

两行轨道根数

1 36797U 10035C 26106.65856470 .00001883 00000-0 16867-3 0 9998
2 36797 98.0981 3.7275 0007297 258.4918 101.5483 14.97104584855019
Epoch: Apr 16, 2026 • Age: 20 hours

当前状态

高度 594.7 km
速度 7.56 km/s
星下点 -62.09°S, 141.41°E
发射日期 Jul 12, 2010
运行时间 15.7 years
类型 other

技术详情

分类 Payload
质量 6.00 kg
干质量 6.00 kg
总质量 6.00 kg
长度 0.20 m
直径 0.20 m
跨度 1.00 m
形状 Box + Ant + Ant
制造商 UTIAS
平台类型 GNB
阶段状态 Unknown Active Status
所有者/国家 NSC/N

Most Searched